This demonstration page uses our WeatherBlox Daily Observations layout. Learn more.

Left ArrowRight Arrow

Hourly Observations for December 2, 2021

Temp ( °F °C ) Dew Point ( °F °C ) Humidity (%) Winds ( mph kmh ) Pressure ( in mb ) Visibility ( mi km ) Precip ( " mm )
12:56 am 00:56 Clear 48 8.9 30 -1.2 49 49 Calm 29.88 1012 10 16 0.00 0.00
1:56 am 01:56 Clear 51 10.5 31 -0.6 46 46 NW 8 13 29.86 1011 10 16 0.00 0.00
2:56 am 02:56 Clear 51 10.7 30 -1.1 44 44 W 8 13 29.88 1012 10 16 0.00 0.00
3:56 am 03:56 Clear 51 10.4 31 -0.4 47 47 WNW 7 11 29.89 1012 10 16 0.00 0.00
4:56 am 04:56 Clear 48 8.8 31 -0.5 52 52 W 5 7 29.91 1013 10 16 0.00 0.00
5:56 am 05:56 Clear 46 8 32 -0.2 57 57 NW 5 7 29.94 1014 10 16 0.00 0.00
6:56 am 06:56 Clear 45 7 32 0 61 61 WNW 8 13 29.97 1015 10 16 0.00 0.00
7:56 am 07:56 Sunny 43 6.3 32 -0.2 63 63 WNW 7 11 29.99 1016 10 16 0.00 0.00
8:22 am 08:22 Mostly Sunny 45 7 32 0 61 61 WNW 7 11 30.01 1016 10 16 0.00 0.00
8:56 am 08:56 Mostly Sunny 50 9.8 34 1.2 55 55 NW 3 6 30.02 1017 10 16 0.00 0.00
9:56 am 09:56 Mostly Sunny 54 12.3 35 1.9 49 49 Calm 30.03 1017 10 16 0.00 0.00
10:56 am 10:56 Mostly Sunny 60 15.4 37 2.5 42 42 Calm 30.03 1017 10 16 0.00 0.00
11:56 am 11:56 Sunny 67 19.2 37 2.5 33 33 Calm 30.01 1016 10 16 0.00 0.00
12:56 pm 12:56 Sunny 66 18.7 38 3.3 36 36 Calm 29.99 1016 10 16 0.00 0.00
1:56 pm 13:56 Sunny 67 19.4 38 3.5 35 35 SE 3 6 29.98 1015 10 16 0.00 0.00
2:56 pm 14:56 Sunny 67 19.4 39 3.9 36 36 E 5 7 29.96 1015 10 16 0.00 0.00
3:56 pm 15:56 Sunny 65 18.1 39 3.9 39 39 E 3 6 29.95 1014 10 16 0.00 0.00
4:56 pm 16:56 Clear 60 15.8 40 4.2 46 46 E 6 9 29.95 1014 10 16 0.00 0.00
5:56 pm 17:56 Clear 58 14.5 38 3.3 47 47 E 6 9 29.95 1014 10 16 0.00 0.00
6:56 pm 18:56 Clear 56 13.1 38 3.5 52 52 ESE 5 7 29.94 1014 10 16 0.00 0.00
7:56 pm 19:56 Clear 54 12.2 38 3.2 54 54 ESE 5 7 29.94 1014 10 16 0.00 0.00
8:56 pm 20:56 Clear 51 10.8 38 3.1 59 59 E 5 7 29.94 1014 10 16 0.00 0.00
9:56 pm 21:56 Clear 51 10.5 38 3.1 60 60 E 6 9 29.93 1014 10 16 0.00 0.00
10:56 pm 22:56 Clear 49 9.2 37 2.5 63 63 E 3 6 29.93 1013 10 16 0.00 0.00
11:56 pm 23:56 undefined 49 9.2 36 2.3 62 62 SE 5 7 29.90 1013 10 16 0.00 0.00

Powered by AerisWeather